Regional Weather Roundup
Issued by NWS Bismarck, ND

Home | Current Version | Previous Version | Graphics & Text | Print | Product List | Glossary On
Versions: 1 2 3 4 5 6 7 8 9 10 11 12 13 14 15 16 17 18 19 20 21 22 23 24 25 26 27 28 29 30 31 32 33 34 35 36 37 38 39 40 41 42 43 44 45 46 47 48 49 50
000
ASUS43 KBIS 181210
RWRBIS

NWR BROADCAST TEXT
NATIONAL WEATHER SERVICE BISMARCK ND
600 AM CST WED JAN 18 2017

NOTE: "FAIR" INDICATES FEW OR NO CLOUDS BELOW 12,000 FEET WITH NO
SIGNIFICANT WEATHER AND/OR OBSTRUCTIONS TO VISIBILITY.


CITY           SKY/WX    TMP DP  RH WIND       PRES   REMARKS
WILLISTON      FAIR      25  21  85 SW6       29.68S WCI  18
MINOT          FAIR      37  28  70 SW16      29.65R
MINOT AFB      NOT AVBL
BISMARCK       FAIR      18  13  80 NE3       29.75S
DICKINSON      FAIR      30  21  69 W10       29.71S
GARRISON         N/A     27  21  78 SW6       29.69S
HETTINGER ARPT FAIR      28  19  69 NW8       29.76S WCI  20
JAMESTOWN      FAIR      27  20  75 CALM      29.73R
CARRINGTON     FAIR      28  23  80 W20       29.71S WCI  15
HAZEN            N/A    N/A N/A N/A NW3       29.74R
MANDAN         FAIR      30  23  74 SW10      29.74S
RUGBY            N/A     25  21  86 S6        29.67S WCI  18
STANLEY        FAIR      32  28  86 W16       29.67F
TIOGA          FAIR      30  27  86 SW21      29.66F WCI  17
WATFORD CITY   FAIR      34  25  69 CALM      29.69F
$$

CITY           SKY/WX    TMP DP  RH WIND       PRES   REMARKS
GRAND FORKS    FAIR      24  18  77 S13       29.69S WCI  12
GRAND FORKS AF CLEAR     22  17  81 S16       29.68S WCI   9
DEVILS LAKE    FAIR      23  19  85 SW7       29.68R WCI  15
FARGO          FAIR      20  16  84 S8        29.77R WCI  10
CAVALIER         N/A     27  23  86 S6        29.64R WCI  20
GRAFTON        FAIR      23  19  86 S10       29.68R WCI  12
GWINNER        FAIR      25  19  80 SW18      29.77R WCI  11
ROLLA            N/A    N/A N/A N/A MISG        N/A
$$

CITY           SKY/WX    TMP DP  RH WIND       PRES   REMARKS
ABERDEEN       FAIR      17  11  77 SW9       29.83R WCI   6
MOBRIDGE       FAIR      17  10  74 E9        29.78R WCI   6
BUFFALO          N/A     34  21  59 W10       29.71S
RAPID CITY     FAIR      25  18  74 CALM      29.81F
GLASGOW        FAIR      25  21  85 SE10      29.61F WCI  15
SIDNEY         FAIR      30  22  72 S16       29.69F WCI  19
WOLF POINT     FAIR      16  13  88 CALM      29.65F
GLENDIVE       FAIR      26  20  77 S18       29.71F WCI  13
MILES CITY     FAIR      21  14  74 S6        29.74F WCI  13
BAKER          FAIR      27  18  69 CALM      29.75F
$$

CITY           SKY/WX    TMP DP  RH WIND       PRES   REMARKS
BILLINGS       FAIR      33  17  51 SW18      29.73F
GREAT FALLS    FAIR      41  25  53 S23       29.62F
REGINA         MOCLDY    27  25  93 S8        29.52R WCI  18
ESTEVAN        MOCLDY    28  25  86 SW10      29.62R WCI  19
$$




USA.gov is the U.S. government's official web portal to all federal, state and local government web resources and services.